Showing default

NINGXIA-1 3, 44781

Orbit data source: Space-Track

NINGXIA-1 3, 44781 is a Chinese payload satellite in LEO that was launched on Wed, 13 Nov 2019 UTC via a CHANG ZHENG 6 launch vehicle from the Taiyaun Space Center, China (TSC). Payload-class satellites include a variety of spacecraft equipped with specific instruments for various scientific and technological missions. These include communications satellites like Starlink; space stations such as the ISS; scientific satellites like the Hubble; Earth observation satellites from companies like Planet Labs, Umbra, and HawkEye 360; GPS; miniature CubeSats for education and research; and military/defense satellites.

Loading next visibility...
Identifier
44781, 2019-076C
Orbit
LEO
Last TLE update
5 hours ago
Origin
Manufacturer
DFH
Mission
Operational Commercial Sigint
Bus & Motor
NX-1, Unknown motor
Mass
~100 kg wet, ~100 kg dry
Launch date (UTC)
2019-11-13 (5 years ago)
Launch vehicle
CHANG ZHENG 6
Launch site
Taiyaun Space Center, China (TSC)
Object type
Payload
Rocket body
Debris
Shape & HBR
Box + 2 Pan, Unknown HBR
Radar Cross Section
0.166 m², Medium (>0.1 m² and < 1m²)

Expand to show TLE details & history

TLE from 5 hours ago
0 NINGXIA-1 3
1 44781U 19076C   25129.18008362 -.00000063  00000-0  43892-4 0  9994
2 44781  44.9992 183.9141 0008880  29.2196 330.9133 14.01907556281161
Epoch: 2025-05-09T04:19Z
Definitive object data (Epoch: 2025-05-09T04:19:19.224Z)
Latitude
-0.00005°
Longitude
-108.15598°
Altitude
881.56 km
Speed
7.416 km/s
True Right ascension
12h 15m 39s
True Declination
0° 00' 00"
Sunlit
Object was in full shadow at TLE epoch
Visualization TLE readout
Latitude
-41.99575°
Longitude
134.56779°
Altitude
905.276 km
Speed
7.397 km/s
Apparent Right ascension
04h 44m 54s
Apparent Declination
-40° 56' 53"
Sunlit
Object is in daylight
Visualization observer readout
Local Sidereal Time
17:05:13
Azimuth
106.582° ESE
Elevation
-85.999°
Doppler factor
1
Orbital elements
Apogee altitude
895.17 km
Perigee altitude
882.264 km
Semi-major axis
7,266.854 km
Eccentricity
0.000888
Inclination
44.9992°
RAAN
183.9141°
Arg. of periapsis
29.2196°
True anomaly
330.86378°
Mean anomaly
330.9133°
Eccentric anomaly
330.88855°
Mean motion
3.50367 °/min
BSTAR
0.000043892
Orbital period
102.75 mins
Loading maneuver chart data...
Loading SW <> Apogee altitude chart data...
Loading historical data...
Loading historical data...
Loading historical data...
Loading historical data...
Loading historical data...
Loading historical data...
Loading historical data...
Other satellites on launch #76 in the year 2019 (2019-11-13 UTC)

NINGXIA-1 3 Visibility forecast

Observer location: undefined°, undefined°

Span
Click to sort rows by Start time (UTC) header in descending order
Start Az.
Max El. time (UTC)
Max El. Az.
Max El.
End time (UTC)
End Az.
11 mins2025-05-09 09:46:58.879Z283.05° WNW2025-05-09 09:51:58.879Z348.905° N38.402°2025-05-09 09:57:58.879Z74.736° E
10 mins2025-05-09 11:35:58.879Z295.206° NW2025-05-09 11:40:58.879Z32.405° NE43.537°2025-05-09 11:45:58.879Z102.21° ESE
9 mins2025-05-09 13:24:58.879Z276.888° WNW2025-05-09 13:28:58.879Z209.291° SW34.213°2025-05-09 13:33:58.879Z148.084° SSE
10 mins2025-05-10 06:08:58.879Z208.808° SW2025-05-10 06:13:58.879Z131.41° SE33.798°2025-05-10 06:18:58.879Z74.885° E
10 mins2025-05-10 07:56:58.879Z259.022° W2025-05-10 08:00:58.879Z307.824° NW43.047°2025-05-10 08:06:58.879Z65.974° ENE
|